• en France
  • Liste des pays
  • À 7 jours
  • Température de l'eau
  • Carte satellitaire
  • Carte météo
  • Widgets météo
  • user-avatar
    Se connecter

    Météo par heure à Nyíregyháza

    Ce jour, 19 Septembre, Mercredi

    Heure Température Précipitation Vent Pression Humidité
    00:00 +18°C° 0 mm 1 m/s 757 mmHg 64%
    01:00 +18°C° 0 mm 1 m/s 756 mmHg 66%
    02:00 +18°C° 0 mm 1 m/s 757 mmHg 67%
    03:00 +16°C° 0 mm 1 m/s 757 mmHg 69%
    04:00 +16°C° 0 mm 1 m/s 757 mmHg 70%
    05:00 +18°C° 0 mm 1 m/s 757 mmHg 68%
    06:00 +19°C° 0 mm 1 m/s 757 mmHg 66%
    07:00 +20°C° 0 mm 1 m/s 757 mmHg 61%
    08:00 +22°C° 0 mm 1 m/s 757 mmHg 56%
    09:00 +24°C° 0 mm 1 m/s 757 mmHg 50%
    10:00 +26°C° 0 mm 1 m/s 757 mmHg 45%
    11:00 +27°C° 0 mm 1 m/s 757 mmHg 42%
    12:00 +28°C° 0 mm 1 m/s 756 mmHg 39%
    13:00 +29°C° 0 mm 2 m/s 756 mmHg 36%
    14:00 +29°C° 0 mm 1 m/s 756 mmHg 36%
    15:00 +29°C° 0 mm 1 m/s 756 mmHg 37%
    16:00 +29°C° 0 mm 1 m/s 756 mmHg 37%
    17:00 +27°C° 0 mm 1 m/s 756 mmHg 42%
    18:00 +25°C° 0 mm 2 m/s 756 mmHg 48%
    19:00 +23°C° 0 mm 2 m/s 756 mmHg 53%
    20:00 +21°C° 0 mm 2 m/s 756 mmHg 55%
    21:00 +20°C° 0 mm 2 m/s 756 mmHg 58%
    22:00 +20°C° 0 mm 2 m/s 757 mmHg 61%
    23:00 +19°C° 0 mm 2 m/s 757 mmHg 62%

    Demain, 20 Septembre, Jeudi

    Heure Température Précipitation Vent Pression Humidité
    00:00 +19°C° 0 mm 2 m/s 756 mmHg 64%
    01:00 +19°C° 0 mm 1 m/s 756 mmHg 66%
    02:00 +19°C° 0 mm 1 m/s 756 mmHg 67%
    03:00 +19°C° 0 mm 1 m/s 756 mmHg 68%
    04:00 +18°C° 0 mm 1 m/s 756 mmHg 69%
    05:00 +19°C° 0 mm 1 m/s 756 mmHg 67%
    06:00 +20°C° 0 mm 1 m/s 756 mmHg 65%
    07:00 +20°C° 0 mm 1 m/s 757 mmHg 63%
    08:00 +22°C° 0 mm 1 m/s 756 mmHg 57%
    09:00 +25°C° 0 mm 1 m/s 756 mmHg 50%
    10:00 +27°C° 0 mm 1 m/s 756 mmHg 44%
    11:00 +28°C° 0 mm 1 m/s 756 mmHg 41%
    12:00 +29°C° 0 mm 1 m/s 756 mmHg 38%
    13:00 +30°C° 0 mm 1 m/s 756 mmHg 35%
    14:00 +30°C° 0 mm 1 m/s 755 mmHg 35%
    15:00 +29°C° 0 mm 1 m/s 755 mmHg 36%
    16:00 +29°C° 0 mm 1 m/s 755 mmHg 36%
    17:00 +27°C° 0 mm 1 m/s 755 mmHg 40%
    18:00 +25°C° 0 mm 1 m/s 755 mmHg 45%
    19:00 +23°C° 0 mm 1 m/s 755 mmHg 49%
    20:00 +23°C° 0 mm 1 m/s 755 mmHg 52%
    21:00 +22°C° 0 mm 1 m/s 755 mmHg 54%
    22:00 +21°C° 0 mm 1 m/s 755 mmHg 56%
    23:00 +21°C° 0 mm 1 m/s 755 mmHg 58%

    Après-demain, 21 Septembre, Vendredi

    Heure Température Précipitation Vent Pression Humidité
    00:00 +20°C° 0 mm 1 m/s 755 mmHg 60%
    01:00 +20°C° 0 mm 1 m/s 755 mmHg 62%
    02:00 +19°C° 0 mm 1 m/s 755 mmHg 64%
    03:00 +19°C° 0 mm 1 m/s 755 mmHg 66%
    04:00 +18°C° 0 mm 1 m/s 755 mmHg 68%
    05:00 +19°C° 0 mm 1 m/s 755 mmHg 66%
    06:00 +20°C° 0 mm 1 m/s 755 mmHg 65%
    07:00 +20°C° 0 mm 1 m/s 755 mmHg 63%
    08:00 +22°C° 0 mm 1 m/s 755 mmHg 56%
    09:00 +25°C° 0 mm 2 m/s 755 mmHg 50%
    10:00 +27°C° 0 mm 2 m/s 755 mmHg 43%
    11:00 +28°C° 0 mm 2 m/s 754 mmHg 40%
    12:00 +29°C° 0 mm 2 m/s 754 mmHg 36%
    13:00 +30°C° 0 mm 2 m/s 754 mmHg 33%
    14:00 +30°C° 0 mm 2 m/s 753 mmHg 33%
    15:00 +30°C° 0 mm 2 m/s 753 mmHg 33%
    16:00 +30°C° 0 mm 2 m/s 753 mmHg 33%
    17:00 +27°C° 0 mm 2 m/s 753 mmHg 36%
    18:00 +25°C° 0 mm 1 m/s 753 mmHg 40%
    19:00 +23°C° 0 mm 1 m/s 753 mmHg 43%
    20:00 +23°C° 0 mm 1 m/s 753 mmHg 44%
    21:00 +21°C° 0 mm 2 m/s 753 mmHg 44%
    22:00 +20°C° 0 mm 2 m/s 754 mmHg 45%
    23:00 +20°C° 0 mm 2 m/s 753 mmHg 46%

    22 Septembre, Samedi

    Heure Température Précipitation Vent Pression Humidité
    00:00 +19°C° 0 mm 2 m/s 753 mmHg 47%
    01:00 +19°C° 0 mm 2 m/s 753 mmHg 48%
    02:00 +18°C° 0 mm 2 m/s 753 mmHg 50%
    03:00 +18°C° 0 mm 2 m/s 753 mmHg 52%
    04:00 +17°C° 0 mm 2 m/s 753 mmHg 55%
    05:00 +18°C° 0 mm 2 m/s 753 mmHg 54%
    06:00 +18°C° 0 mm 2 m/s 753 mmHg 53%
    07:00 +19°C° 0 mm 2 m/s 753 mmHg 53%
    08:00 +21°C° 0 mm 2 m/s 753 mmHg 47%
    09:00 +24°C° 0 mm 3 m/s 753 mmHg 42%
    10:00 +26°C° 0 mm 3 m/s 753 mmHg 37%
    11:00 +27°C° 0 mm 3 m/s 752 mmHg 35%
    12:00 +29°C° 0 mm 3 m/s 752 mmHg 33%
    13:00 +30°C° 0 mm 3 m/s 752 mmHg 31%
    14:00 +29°C° 0 mm 4 m/s 752 mmHg 33%
    15:00 +28°C° 0 mm 4 m/s 752 mmHg 36%
    16:00 +28°C° 0 mm 5 m/s 752 mmHg 38%
    17:00 +23°C° 0.1 mm 5 m/s 752 mmHg 46%
    18:00 +20°C° 0.1 mm 6 m/s 753 mmHg 55%
    19:00 +15°C° 0.1 mm 7 m/s 753 mmHg 63%
    20:00 +14°C° 1.4 mm 6 m/s 754 mmHg 70%
    21:00 +13°C° 1.4 mm 6 m/s 754 mmHg 77%
    22:00 +12°C° 1.4 mm 5 m/s 755 mmHg 84%
    23:00 +12°C° 0.4 mm 4 m/s 755 mmHg 83%

    23 Septembre, Dimanche

    Heure Température Précipitation Vent Pression Humidité
    00:00 +12°C° 0.4 mm 3 m/s 756 mmHg 81%
    01:00 +11°C° 0.4 mm 3 m/s 756 mmHg 80%
    02:00 +12°C° 0 mm 2 m/s 756 mmHg 82%
    03:00 +12°C° 0 mm 2 m/s 757 mmHg 83%
    04:00 +10°C° 0 mm 2 m/s 757 mmHg 85%
    05:00 +12°C° 0 mm 2 m/s 757 mmHg 83%
    06:00 +12°C° 0 mm 1 m/s 757 mmHg 82%
    07:00 +13°C° 0 mm 1 m/s 757 mmHg 80%
    08:00 +14°C° 0 mm 1 m/s 757 mmHg 70%
    09:00 +16°C° 0 mm 1 m/s 757 mmHg 61%
    10:00 +18°C° 0 mm 2 m/s 757 mmHg 52%
    11:00 +19°C° 0 mm 2 m/s 757 mmHg 47%
    12:00 +19°C° 0 mm 2 m/s 756 mmHg 42%
    13:00 +20°C° 0 mm 2 m/s 756 mmHg 38%
    14:00 +20°C° 0 mm 3 m/s 755 mmHg 37%
    15:00 +20°C° 0 mm 3 m/s 754 mmHg 37%
    16:00 +20°C° 0 mm 3 m/s 754 mmHg 37%
    17:00 +19°C° 0 mm 3 m/s 753 mmHg 40%
    18:00 +18°C° 0 mm 3 m/s 753 mmHg 43%
    19:00 +16°C° 0 mm 3 m/s 753 mmHg 47%
    20:00 +16°C° 0 mm 3 m/s 752 mmHg 47%
    21:00 +14°C° 0 mm 3 m/s 752 mmHg 47%
    22:00 +14°C° 0 mm 3 m/s 751 mmHg 48%
    23:00 +14°C° 0 mm 3 m/s 750 mmHg 48%

    24 Septembre, Lundi

    Heure Température Précipitation Vent Pression Humidité
    00:00 +14°C° 0 mm 3 m/s 749 mmHg 48%
    01:00 +14°C° 0 mm 3 m/s 749 mmHg 48%
    02:00 +14°C° 0 mm 4 m/s 748 mmHg 47%
    03:00 +15°C° 0 mm 4 m/s 747 mmHg 46%
    04:00 +17°C° 0 mm 4 m/s 747 mmHg 44%
    05:00 +17°C° 0.2 mm 4 m/s 747 mmHg 48%
    06:00 +18°C° 0.2 mm 4 m/s 746 mmHg 52%
    07:00 +18°C° 0.2 mm 4 m/s 746 mmHg 56%
    08:00 +20°C° 0.1 mm 5 m/s 746 mmHg 54%
    09:00 +21°C° 0.1 mm 5 m/s 746 mmHg 53%
    10:00 +22°C° 0.1 mm 5 m/s 745 mmHg 52%
    11:00 +24°C° 0 mm 6 m/s 745 mmHg 48%
    12:00 +27°C° 0 mm 7 m/s 744 mmHg 43%
    13:00 +29°C° 0 mm 7 m/s 744 mmHg 39%
    14:00 +27°C° 0 mm 7 m/s 744 mmHg 43%
    15:00 +24°C° 0 mm 7 m/s 744 mmHg 48%
    16:00 +21°C° 0 mm 7 m/s 744 mmHg 52%
    17:00 +18°C° 0.2 mm 7 m/s 744 mmHg 58%
    18:00 +16°C° 0.2 mm 7 m/s 745 mmHg 64%
    19:00 +14°C° 0.2 mm 6 m/s 746 mmHg 71%
    20:00 +13°C° 0.9 mm 6 m/s 747 mmHg 75%
    21:00 +13°C° 0.9 mm 5 m/s 748 mmHg 79%
    22:00 +12°C° 0.9 mm 4 m/s 748 mmHg 83%
    23:00 +12°C° 0.4 mm 4 m/s 749 mmHg 83%
    Voir plus